Regional Weather Roundup
Issued by NWS Kansas City/Pleasant Hill, MO

Home | Current Version | Previous Version | Graphics & Text | Print | Product List | Glossary Off
Versions: 1 2 3 4 5 6 7 8 9 10 11 12 13 14 15 16 17 18 19 20 21 22 23 24 25 26 27 28 29 30 31 32 33 34 35 36 37 38 39 40 41 42 43 44 45 46 47 48 49 50

895
ASUS43 KEAX 240510
RWREAX

WEATHER ROUNDUP FOR EASTERN KANSAS AND NORTHWEST MISSOURI
NATIONAL WEATHER SERVICE KANSAS CITY/PLEASANT HILL MO
1100 PM CST MON JAN 23 2017

KSZ040-057-103>105-MOZ028-029-037-043-240600-
...KANSAS CITY METROPOLITAN AREA...

CITY           SKY/WX    TMP DP  RH WIND       PRES   REMARKS
K.C. INTL      CLEAR     33  29  85 E9        29.83S FOG     WCI  25
K.C. DOWNTOWN  CLEAR     32  30  92 NE5       29.84S WCI  27
LEES SUMMIT    CLEAR     32  30  92 E6        29.83F WCI  26
OLATHE - IXD   CLEAR     32  30  92 E6        29.81F WCI  26
OLATHE - OJC   CLEAR     32  31  96 SE7       29.81F WCI  26
LAWRENCE       CLEAR     28  28 100 E6        29.82S FOG     WCI  22

$$

MOZ001>008-011>017-020>025-030>033-038>040-044>046-053-054-240600-
...NORTHERN AND CENTRAL MISSOURI...

CITY           SKY/WX    TMP DP  RH WIND       PRES   REMARKS
ST. JOSEPH     CLEAR     31  29  92 E6        29.85S WCI  25
MOSBY          CLEAR     32  30  93 E3        29.86S
WARRENSBURG    CLEAR     30  28  93 NE6       29.85S FOG     WCI  24
WHITEMAN AFB   CLEAR     32  32 100 E3        29.84S
CLINTON        CLEAR     30  30 100 E5        29.85S FOG     WCI  25
SEDALIA        CLEAR     31  29  92 E3        29.87R
WARSAW         NOT AVBL
CHILLICOTHE      N/A     27  25  92 CALM      29.88S
KIRKSVILLE     CLOUDY    32  29  88 CALM      29.87F

$$

MOZ041-047>049-056>058-063>065-088>090-097-240600-
...EASTERN AND SOUTHERN MISSOURI...

CITY           SKY/WX    TMP DP  RH WIND       PRES   REMARKS
ST. LOUIS INTL CLOUDY    41  31  67 NW5       29.88S
SPIRIT OF STL  CLOUDY    41  34  76 NW5       29.88R
COLUMBIA       CLOUDY    35  31  85 NE5       29.86F WCI  31
JEFFERSON CITY CLEAR     30  27  88 CALM      29.88F
ROLLA          FOG       27  27 100 NE3       29.84F VSB 1
OSAGE BEACH    CLEAR     29  28  96 NE3       29.86F
SPRINGFIELD    CLEAR     35  30  82 SE6       29.82R WCI  30
BRANSON        CLEAR     39  32  75 CALM      29.85R
JOPLIN         CLEAR     38  33  82 SE9       29.80F WCI  31
WEST PLAINS    CLEAR     32  29  88 CALM      29.85S

$$

IAZ060-094-KSZ022-034>040-054-083-096-NEZ052-066-093-240600-
...KANSAS...SOUTHEAST NEBRASKA AND IOWA...

CITY           SKY/WX    TMP DP  RH WIND       PRES   REMARKS
TOPEKA         CLEAR     32  29  88 E7        29.80F FOG     WCI  26
MANHATTAN      CLEAR     35  32  88 E6        29.75F FOG     WCI  30
EMPORIA        CLEAR     37  33  85 SE9       29.74F WCI  30
CHANUTE        CLEAR     40  33  76 E9        29.77F WCI  34
WICHITA        CLEAR     43  33  68 SE17G24   29.66F
OMAHA          CLOUDY    32  27  81 SE9       29.85R WCI  24
LINCOLN        CLOUDY    32  29  88 E9        29.81S WCI  24
FALLS CITY     CLEAR     30  28  92 E8        29.81F WCI  22
LAMONI         CLOUDY    31  28  89 SE6       29.85R WCI  25
DES MOINES     CLOUDY    33  28  81 CALM      29.88S

$$





USA.gov is the U.S. government's official web portal to all federal, state and local government web resources and services.